Location: Presov
(49.0000°N, 21.2500°E)
Time: 22:34:44
(UTC+02:00)

ISS - Pass Details

Date: 25 March 2019
Orbit: 408 x 410 km, 51.6° (Epoch: 23 April)

Event Time Altitude Azimuth Distance (km) Brightness Sun altitude
Rises 20:14:02 0° 265° (W) 2,334 0.9 -22.4°
Reaches altitude 10° 20:16:08 10° 270° (W) 1,473 -0.2 -22.7°
Enters shadow 20:18:44 46° 302° (WNW) 561 -2.8 -23.0°
